• In Hungary
  • List of Countries
  • For 7 days
  • Water Temperature
  • Satellite Maps
  • Weather Map
  • News
  • Weather Widgets
  • user-avatar
    Login

    Hourly Weather Zavitne

    Today, 19 January, Friday

    Time Temperature Precipitation Wind Pressure Humidity
    00:00 -7°C° 0 mm 8 mps 737 mmHg 86%
    01:00 -7°C° 0 mm 8 mps 737 mmHg 86%
    02:00 -10°C° 0 mm 8 mps 737 mmHg 87%
    03:00 -9°C° 0 mm 7 mps 737 mmHg 88%
    04:00 -9°C° 0 mm 7 mps 737 mmHg 88%
    05:00 -9°C° 0 mm 7 mps 737 mmHg 89%
    06:00 -9°C° 0 mm 7 mps 737 mmHg 89%
    07:00 -9°C° 0 mm 7 mps 737 mmHg 88%
    08:00 -8°C° 0 mm 8 mps 737 mmHg 87%
    09:00 -7°C° 0 mm 7 mps 738 mmHg 87%
    10:00 -5°C° 0 mm 6 mps 738 mmHg 86%
    11:00 -4°C° 0 mm 6 mps 738 mmHg 85%
    12:00 -4°C° 0.1 mm 5 mps 738 mmHg 86%
    13:00 -4°C° 0.1 mm 5 mps 738 mmHg 87%
    14:00 -3°C° 0.1 mm 4 mps 738 mmHg 88%
    15:00 -3°C° 0.1 mm 4 mps 738 mmHg 89%
    16:00 -4°C° 0.1 mm 3 mps 739 mmHg 91%
    17:00 -4°C° 0.1 mm 3 mps 739 mmHg 92%
    18:00 -3°C° 0.1 mm 2 mps 739 mmHg 93%
    19:00 -3°C° 0.1 mm 2 mps 739 mmHg 94%
    20:00 -3°C° 0.1 mm 2 mps 739 mmHg 95%
    21:00 -3°C° 0 mm 2 mps 740 mmHg 95%
    22:00 -4°C° 0 mm 2 mps 740 mmHg 95%
    23:00 -4°C° 0 mm 2 mps 740 mmHg 95%

    Tomorrow, 20 January, Saturday

    Time Temperature Precipitation Wind Pressure Humidity
    00:00 -4°C° 0 mm 2 mps 741 mmHg 95%
    01:00 -4°C° 0 mm 2 mps 741 mmHg 95%
    02:00 -4°C° 0 mm 2 mps 742 mmHg 95%
    03:00 -4°C° 0 mm 2 mps 742 mmHg 95%
    04:00 -5°C° 0 mm 3 mps 742 mmHg 95%
    05:00 -5°C° 0 mm 3 mps 742 mmHg 95%
    06:00 -5°C° 0 mm 3 mps 742 mmHg 95%
    07:00 -4°C° 0 mm 3 mps 743 mmHg 94%
    08:00 -4°C° 0 mm 3 mps 743 mmHg 93%
    09:00 -2°C° 0 mm 3 mps 743 mmHg 93%
    10:00 -1°C° 0 mm 3 mps 743 mmHg 93%
    11:00 -1°C° 0 mm 4 mps 743 mmHg 93%
    12:00 0°C° 0.2 mm 3 mps 742 mmHg 95%
    13:00 0°C° 0.2 mm 3 mps 742 mmHg 96%
    14:00 0°C° 0.2 mm 3 mps 742 mmHg 97%
    15:00 0°C° 0.3 mm 3 mps 742 mmHg 97%
    16:00 -1°C° 0.3 mm 4 mps 741 mmHg 97%
    17:00 -1°C° 0.3 mm 4 mps 741 mmHg 97%
    18:00 -1°C° 0.1 mm 4 mps 741 mmHg 96%
    19:00 0°C° 0.1 mm 4 mps 741 mmHg 95%
    20:00 0°C° 0.1 mm 5 mps 740 mmHg 95%
    21:00 0°C° 0.2 mm 5 mps 740 mmHg 94%
    22:00 0°C° 0.2 mm 5 mps 740 mmHg 94%
    23:00 0°C° 0.2 mm 5 mps 740 mmHg 94%

    Day after tomorrow, 21 January, Sunday

    Time Temperature Precipitation Wind Pressure Humidity
    00:00 0°C° 0.1 mm 5 mps 739 mmHg 94%
    01:00 -1°C° 0.1 mm 6 mps 739 mmHg 95%
    02:00 -1°C° 0.1 mm 6 mps 738 mmHg 95%
    03:00 -1°C° 0.5 mm 6 mps 738 mmHg 95%
    04:00 -1°C° 0.5 mm 6 mps 737 mmHg 95%
    05:00 -1°C° 0.5 mm 6 mps 736 mmHg 94%
    06:00 -1°C° 0.6 mm 6 mps 736 mmHg 95%
    07:00 -1°C° 0.6 mm 6 mps 735 mmHg 95%
    08:00 -1°C° 0.6 mm 6 mps 735 mmHg 96%
    09:00 -1°C° 1 mm 6 mps 734 mmHg 96%
    10:00 -1°C° 1 mm 6 mps 734 mmHg 95%
    11:00 -1°C° 1 mm 6 mps 734 mmHg 95%
    12:00 -1°C° 0.3 mm 7 mps 734 mmHg 92%
    13:00 -1°C° 0.3 mm 8 mps 735 mmHg 89%
    14:00 -2°C° 0.3 mm 8 mps 736 mmHg 86%
    15:00 -3°C° 0 mm 7 mps 737 mmHg 86%
    16:00 -3°C° 0 mm 6 mps 738 mmHg 86%
    17:00 -4°C° 0 mm 5 mps 739 mmHg 85%
    18:00 -4°C° 0 mm 4 mps 740 mmHg 86%
    19:00 -4°C° 0 mm 4 mps 741 mmHg 87%
    20:00 -4°C° 0 mm 3 mps 742 mmHg 88%
    21:00 -5°C° 0 mm 3 mps 742 mmHg 88%
    22:00 -4°C° 0 mm 2 mps 742 mmHg 88%
    23:00 -2°C° 0 mm 1 mps 742 mmHg 88%

    22 January, Monday

    Time Temperature Precipitation Wind Pressure Humidity
    00:00 -4°C° 0 mm 2 mps 742 mmHg 87%
    01:00 -4°C° 0 mm 2 mps 741 mmHg 85%
    02:00 -4°C° 0 mm 2 mps 741 mmHg 84%
    03:00 -5°C° 0 mm 3 mps 741 mmHg 83%
    04:00 -5°C° 0 mm 3 mps 741 mmHg 82%
    05:00 -4°C° 0 mm 4 mps 741 mmHg 81%
    06:00 -4°C° 0.1 mm 4 mps 741 mmHg 82%
    07:00 -4°C° 0.1 mm 4 mps 741 mmHg 83%
    08:00 -5°C° 0.1 mm 5 mps 741 mmHg 84%
    09:00 -5°C° 0.8 mm 5 mps 740 mmHg 87%
    10:00 -5°C° 0.8 mm 6 mps 740 mmHg 89%
    11:00 -6°C° 0.8 mm 7 mps 739 mmHg 92%
    12:00 -6°C° 1.2 mm 7 mps 738 mmHg 92%
    13:00 -6°C° 1.2 mm 8 mps 738 mmHg 92%
    14:00 -6°C° 1.2 mm 8 mps 737 mmHg 92%
    15:00 -6°C° 1.1 mm 8 mps 737 mmHg 92%
    16:00 -6°C° 1.1 mm 8 mps 737 mmHg 93%
    17:00 -6°C° 1.1 mm 7 mps 737 mmHg 93%
    18:00 -4°C° 1 mm 7 mps 737 mmHg 93%
    19:00 -4°C° 1 mm 7 mps 737 mmHg 94%
    20:00 -4°C° 1 mm 7 mps 736 mmHg 94%
    21:00 -4°C° 0.8 mm 6 mps 736 mmHg 94%
    22:00 -4°C° 0.8 mm 6 mps 736 mmHg 94%
    23:00 -3°C° 0.8 mm 6 mps 736 mmHg 94%

    23 January, Tuesday

    Time Temperature Precipitation Wind Pressure Humidity
    00:00 -2°C° 1 mm 5 mps 736 mmHg 95%
    01:00 -2°C° 1 mm 5 mps 736 mmHg 95%
    02:00 -2°C° 1 mm 5 mps 736 mmHg 95%
    03:00 -2°C° 1.3 mm 5 mps 737 mmHg 95%
    04:00 -2°C° 1.3 mm 5 mps 737 mmHg 95%
    05:00 -2°C° 1.3 mm 5 mps 737 mmHg 95%
    06:00 -2°C° 0.8 mm 4 mps 737 mmHg 96%
    07:00 -2°C° 0.8 mm 4 mps 738 mmHg 96%
    08:00 -2°C° 0.8 mm 4 mps 738 mmHg 96%
    09:00 -1°C° 0.2 mm 3 mps 738 mmHg 97%
    10:00 -1°C° 0.2 mm 3 mps 739 mmHg 98%
    11:00 -1°C° 0.2 mm 3 mps 739 mmHg 99%
    12:00 -1°C° 0.3 mm 3 mps 740 mmHg 99%
    13:00 -1°C° 0.3 mm 3 mps 740 mmHg 98%
    14:00 -1°C° 0.3 mm 3 mps 740 mmHg 98%
    15:00 -1°C° 0.2 mm 3 mps 741 mmHg 98%
    16:00 -2°C° 0.2 mm 4 mps 741 mmHg 97%
    17:00 -3°C° 0.2 mm 4 mps 742 mmHg 96%
    18:00 -3°C° 0.1 mm 4 mps 742 mmHg 95%
    19:00 -3°C° 0.1 mm 4 mps 743 mmHg 95%
    20:00 -4°C° 0.1 mm 5 mps 743 mmHg 95%
    21:00 -5°C° 0.1 mm 5 mps 743 mmHg 95%
    22:00 -5°C° 0.1 mm 5 mps 744 mmHg 94%
    23:00 -5°C° 0.1 mm 5 mps 744 mmHg 94%

    24 January, Wednesday

    Time Temperature Precipitation Wind Pressure Humidity
    00:00 -5°C° 0.1 mm 5 mps 744 mmHg 94%
    01:00 -6°C° 0.1 mm 5 mps 745 mmHg 94%
    02:00 -6°C° 0.1 mm 5 mps 745 mmHg 94%
    03:00 -6°C° 0.1 mm 5 mps 745 mmHg 94%
    04:00 -6°C° 0.1 mm 5 mps 745 mmHg 94%
    05:00 -8°C° 0.1 mm 6 mps 746 mmHg 94%
    06:00 -8°C° 0.1 mm 6 mps 746 mmHg 93%
    07:00 -8°C° 0.1 mm 6 mps 747 mmHg 93%
    08:00 -8°C° 0.1 mm 6 mps 747 mmHg 93%
    09:00 -8°C° 0.1 mm 6 mps 748 mmHg 93%
    10:00 -8°C° 0.1 mm 6 mps 748 mmHg 93%
    11:00 -8°C° 0.1 mm 6 mps 749 mmHg 93%
    12:00 -8°C° 0.1 mm 6 mps 749 mmHg 93%
    13:00 -6°C° 0.1 mm 6 mps 749 mmHg 93%
    14:00 -6°C° 0.1 mm 6 mps 749 mmHg 93%
    15:00 -8°C° 0.1 mm 6 mps 750 mmHg 93%
    16:00 -8°C° 0.1 mm 6 mps 751 mmHg 93%
    17:00 -7°C° 0.1 mm 5 mps 751 mmHg 93%
    18:00 -8°C° 0.1 mm 5 mps 752 mmHg 92%
    19:00 -8°C° 0.1 mm 5 mps 752 mmHg 92%
    20:00 -10°C° 0.1 mm 6 mps 753 mmHg 92%
    21:00 -10°C° 0.1 mm 5 mps 753 mmHg 92%
    22:00 -10°C° 0.1 mm 5 mps 754 mmHg 92%
    23:00 -10°C° 0.1 mm 5 mps 754 mmHg 91%
    Show more